Retour au catalogue

COSMOS 593

ActifMilitaireLEO
NORAD 6850·PAYLOAD·🇷🇺 Russia

Lancé Oct 2, 1973 depuis Plesetsk Cosmodrome

Loading…

Prochains Passages (prochaines 24 heures)

TLE

FraisSource: Space-Track

Époque: Sep 14, 2026, 10:34 UTC

1 06850U 73069F   26257.44041957 -.00000036  00000-0 -11501-3 0  9992
2 06850  73.9997  56.8366 0077308  95.3095 294.6898 12.59722188434793

Suivez COSMOS 593 en temps réel avec AllMySat

Download on the App Store